Location: London
(51.5074°N, 0.1278°W)
Time: 07:39:11
(UTC+00:00)

TIGRISAT - Pass Details

Date: 09 October 2020
Orbit: 606 x 688 km, 97.7° (Epoch: 30 October)

Event Time Altitude Azimuth Distance (km) Brightness Sun altitude
Rises 21:40:30 0° 10° (N) 3,014 ? -31.0°
Reaches altitude 10° 21:42:45 10° 6° (N) 2,108 ? -31.3°
Enters shadow 21:44:35 23° 358° (N) 1,415 ? -31.5°
